P/2019 T5 ( ATLAS )

Japanese version
Home page
Updated on December 24, 2019

---------------------------------------------------------------------

* Profile

Discovery Date October 8, 2019
Magnitude 18.9 mag
Discoverer Asteroid Terrestrial-Impact Last Alert System (ATLAS) search program

* Pictures

* Orbital Elements

Epoch 2019 July 16.0 TT = JDT 2458680.5
T 2019 Aug. 1.27172 TT                                  Williams
q   1.5306165            (2000.0)            P               Q
n   0.04267296     Peri.  189.72004     +0.24310836     -0.82523813
a   8.1102496      Node   247.73154     +0.92285198     +0.35863082
e   0.8112738      Incl.   33.42667     +0.29873491     -0.43630948
P  23.1
From 61 observations 2019 Oct. 8-Nov. 7, mean residual 0".5.

* Magnitudes Graph

        m1 = 14.0 + 5 log d + 10.0 log r

---------------------------------------------------------------------

The orbital elements are published on M.P.E.C. 2019-X94.
The magnitudes graphs are made with Comet for Windows.

---------------------------------------------------------------------

Copyright(C) Seiichi Yoshida (comet@aerith.net). All rights reserved.